Location: Newark
(42.8481°N, 0.4872°E)
Time: 22:23:32
(UTC+00:00)

Vanguard 2 - Visible Passes

Search period start: 18 June 2021 00:00
Search period end: 28 June 2021 00:00
Orbit: 552 x 2937 km, 32.9° (Epoch: 18 June)

Date Brightness Start Highest point End Pass type
(mag) Time Alt. Az. Time Alt. Az. Time Alt. Az.
18 Jun 8.8 21:40:06 10° WSW 21:46:16 27° SSW 21:47:49 24° S visible
19 Jun 9.1 21:58:08 10° WSW 22:03:35 22° SSW 22:04:30 21° SSW visible
20 Jun 9.2 20:03:51 10° WSW 20:13:20 40° SSW 20:19:17 10° SE visible
20 Jun 9.5 22:16:28 10° WSW 22:20:49 17° SW 22:21:11 17° SSW visible
21 Jun 9.3 20:21:43 10° W 20:30:48 36° SSW 20:36:27 11° SE visible
21 Jun 9.9 22:35:31 10° WSW 22:37:50 12° SW 22:37:50 12° SW visible
22 Jun 9.5 20:39:39 10° W 20:48:11 32° SSW 20:53:06 13° SSE visible
23 Jun 9.5 20:57:45 10° W 21:05:28 26° SSW 21:09:46 14° SSE visible
24 Jun 9.7 21:16:04 10° W 21:22:38 21° SW 21:26:25 14° S visible
25 Jun 10.0 21:34:51 10° WSW 21:39:42 15° SW 21:43:05 11° SSW visible
26 Jun 10.3 21:55:26 10° WSW 21:56:41 10° SW 21:57:51 10° SW visible
